Volver al catálogo

DELTA 2 R/B(1)

ActivoLEO
NORAD 22109·ROCKET BODY·🇺🇸 United States

Lanzado Sep 9, 1992 desde Cape Canaveral Space Force Station

Loading…

Próximos Pases (próximas 24 horas)

TLE

ActualizadoSource: Space-Track

Época: Sep 14, 2026, 14:01 UTC

1 22109U 92058B   26257.58466742  .00001186  00000-0  10060-3 0  9998
2 22109  19.7825  22.6869 0031198 278.2134  81.4743 14.80412373808736

Sigue DELTA 2 R/B(1) en tiempo real con AllMySat

Download on the App Store